Regional Weather Roundup
Issued by NWS Midland/Odessa, TX

Skip options and go directly to product.
Home | Oldest Version | Previous Version | Current Version | All | Graphics & Text | Save Text | Print | Product List | Glossary On

Skip product version selection by date and time.   
770
ASUS44 KMAF 311510
RWRMAF
MIDLAND AREA WEATHER ROUNDUP
NATIONAL WEATHER SERVICE MIDLAND TX
1000 AM CDT FRI OCT 31 2014

...IN SOUTHWEST TEXAS AND SOUTHEAST NEW MEXICO...

CITY           SKY/WX    TMP DP  RH WIND       PRES   REMARKS
ALPINE         CLOUDY    58  51  79 NE13      30.46R
ANDREWS        FAIR      55  33  43 E14       30.43R
ARTESIA        NOT AVBL
BIG SPRING     SUNNY     59  35  41 NE9       30.43R
CARLSBAD       PTSUNNY   56  38  50 N5        30.42R
DRYDEN           N/A     68  47  46 NE13      30.34R
FORT STOCKTON  CLOUDY    62  41  46 E10       30.38R
GUAD PASS      SUNNY     53  31  42 NE35G40   30.42R
HOBBS          SUNNY     54  32  43 NE13      30.43R
MARFA          PTSUNNY   57  50  77 NE17G24   30.42R
MIDLAND AIRPK  SUNNY     57  36  45 NE9       30.43R
MIDLAND INTL   SUNNY     57  36  45 NE10      30.41R
ODESSA         SUNNY     57  34  41 NE12      30.41R
PECOS          PTSUNNY   58  40  52 N7        30.40R
PRESIDIO       CLOUDY    65  53  63 CALM      30.32R
SEMINOLE       SUNNY     54  32  44 E10       30.44R
SNYDER         SUNNY     53  35  51 NE12      30.42R
WINK           PTSUNNY   60  34  37 NE9       30.39R
$$
...OTHER STATIONS IN TEXAS...

CITY           SKY/WX    TMP DP  RH WIND       PRES   REMARKS
ABILENE        SUNNY     56  37  49 N8        30.40R
AMARILLO       SUNNY     46  34  62 NE9       30.48R
AUSTIN         MOSUNNY   64  50  60 N15       30.27R
BROWNSVILLE    SUNNY     78  71  79 NW5       30.15R
CORPUS CHRISTI TSTM      70  68  93 N7        30.20R
DALLAS FTW     SUNNY     59  42  53 N20G25    30.32R
DEL RIO        CLOUDY    72  48  42 E15G21    30.27R
EL PASO        MOSUNNY   61  38  42 E12G20    30.34R
HOUSTON INT    MOSUNNY   68  48  48 N13       30.19R
LUBBOCK        SUNNY     51  34  52 E14       30.44R
SAN ANGELO     SUNNY     63  36  36 NE16      30.37R
SAN ANTONIO    PTSUNNY   67  54  63 N9        30.27R
WACO           SUNNY     61  44  53 N12       30.31R
WICHITA FALLS  NOT AVBL
$$
...OTHER LOCATIONS IN NEW MEXICO...

CITY           SKY/WX    TMP DP  RH WIND       PRES   REMARKS
ALAMAGORDO     NOT AVBL
ALBUQUERQUE    MOSUNNY   54  27  35 E18       30.37R
CANNON AFB     SUNNY     41  28  60 CALM      30.40R
CLOVIS         SUNNY     48  28  46 E9        30.49R
HOLLOMAN AFB   SUNNY     53  40  59 NE1       30.34R
ROSWELL        SUNNY     53  34  48 CALM      30.44R
RUIDOSO        MOSUNNY   46  32  57 SE9       30.50R
SANTA FE       MOSUNNY   50  24  36 SE13      30.43R
TRUTH OR CONSE SUNNY     55  31  39 N7        30.34R
TUCUMCARI      SUNNY     46  29  51 E3        30.47R
$$

USA.gov is the U.S. government's official web portal to all federal, state and local government web resources and services.